www.pogodaiklimat.ru

Погода и климат >> Архив погоды >> Япония >> Оита


ПОГОДА в Оите

  • Прогноз погоды в Оите
  • Монитор погоды в Оите

АРХИВ ПОГОДЫ в Оите

Время (UTC), дата Ветер
(напр.,м/с)
 
Видим.   Явления Облачность Т
(С)
Тd
(С)
f
(%)
Тe
(С)
Тes
(С)
Комфортность P
(гПа)
Po
(гПа)
Тmin
(С)
Tmax
(С)
R
(мм)
R24
(мм)
S
(см)
07 19.03 С 2 н/о н/о +13.2 +9.3 77 +13 +13 1014.9 1013.3
08 19.03 С 2 н/о н/о +13.5 +8.6 72 +13 +13 1014.9 1013.3
09 19.03 С 2 30 км 1/1
[Cu hum]
+13.0 +8.7 75 +12 +12 1015.3 1013.7
10 19.03 В 2 н/о н/о +11.4 +8.8 84 +11 +11 1016.1 1014.5
11 19.03 Ю 2 н/о н/о +10.7 +8.6 87 +10 +10 1016.9 1015.3
12 19.03 Ю 2 10 км 1/1
[Cu hum]
+9.4 +8.5 94 +8 +8 1017.4 1015.7 +13.7 7
13 19.03 Ю 2 н/о н/о +8.6 +8.0 96 +7 +7 1018.3 1016.6
14 19.03 Ю 3 н/о н/о +7.9 +6.7 92 +5 +5 1018.8 1017.1
15 19.03 Ю 3 н/о н/о +7.2 +6.2 93 +4 +4 1019.1 1017.4
16 19.03 Ю 2 н/о н/о +6.5 +5.8 95 +4 +4 1019.0 1017.3
17 19.03 Ю 3 н/о н/о +6.1 +4.9 92 +3 +3 1019.0 1017.3
18 19.03 Ю 1 15 км 1/1
[Cu hum]
+5.3 +4.6 95 +4 +4 1018.5 1016.8
19 19.03 Ю 4 н/о н/о +5.1 +3.6 90 +1 +1 1018.6 1016.9
21 19.03 Ю 3 10 км 1/1
[Cu hum]
+4.2 +3.5 95 +1 +1 1019.1 1017.4
22 19.03 Ю 3 н/о н/о +4.7 +3.2 90 +1 +1 1019.5 1017.8
23 19.03 Ю 3 н/о н/о +6.3 +4.0 85 +3 +3 1019.0 1017.3
00 20.03 Ю 2 20 км 3/1
[Cu hum Ci sp]
+9.9 +5.9 76 +8 +14 1019.3 1017.6 +4.1
01 20.03 ЮВ 1 н/о н/о +13.6 +6.5 62 +14 +14 1019.1 1017.5
02 20.03 СЗ 3 н/о н/о +14.5 +8.9 69 +14 +14 1018.1 1016.5
03 20.03 СВ 3 20 км 8/1
[Cu hum Ac trans Ci sp]
+16.2 +9.9 66 +16 +23 1017.2 1015.6
04 20.03 СЗ 4 н/о н/о +15.4 +10.4 72 +14 +14 1015.9 1014.3
05 20.03 СЗ 3 н/о н/о +15.9 +10.7 71 +16 +16 1015.5 1013.9
06 20.03 Ю 5 25 км 9/1
[Cu hum Ac trans Ci sp]
+20.7 +5.1 36 +21 +24 комфорт 1014.5 1012.9
07 20.03 Ю 4 н/о н/о +20.3 +6.3 40 +21 +21 комфорт 1014.6 1013.0
08 20.03 Ю 5 н/о н/о +18.9 +8.0 49 +19 +19 1014.6 1013.0
09 20.03 Ю 5 30 км 9/6
[Cu Sc Ac trans Ci sp]
+17.8 +9.2 57 +17 +17 1013.8 1012.2
10 20.03 ЮВ 5 н/о н/о +17.2 +9.6 61 +17 +17 1014.0 1012.4
11 20.03 Ю 5 н/о н/о +16.9 +10.1 64 +16 +16 1014.5 1012.9
12 20.03 Ю 5 25 км в посл. час дождь 9/4
[Cu Sc Ac As]
+16.2 +11.0 71 +15 +15 1013.6 1012.0 +21.1 0.0
13 20.03 Ю 6 н/о н/о +16.8 +11.3 70 +16 +16 1012.9 1011.3
14 20.03 Ю 8 н/о н/о +17.2 +11.7 70 +16 +16 1012.2 1010.6
15 20.03 Ю 8 н/о н/о +17.5 +11.8 69 +16 +16 1010.7 1009.1
16 20.03 Ю 6 н/о н/о +17.7 +11.7 68 +17 +17 1010.0 1008.4
17 20.03 Ю 8 н/о н/о +17.9 +11.7 67 +17 +17 1008.7 1007.1
18 20.03 Ю 6 15 км слаб. ливневой дождь 10/10
[Cu med, cong]
+17.2 +12.5 74 +16 +16 1007.8 1006.2 0.0
19 20.03 Ю 4 н/о н/о +17.6 +12.9 74 +17 +17 1007.5 1005.9
20 20.03 Ю 4 н/о н/о +16.2 +14.2 88 +15 +15 1006.9 1005.3
21 20.03 Ю 5 15 км в посл. час ливневой дождь 10/8
[Cu med, cong Ac As]
+15.9 +14.4 91 +15 +15 1006.8 1005.2
22 20.03 Ю 5 н/о н/о +16.2 +14.4 89 +15 +15 1006.7 1005.1
23 20.03 Ю 7 н/о н/о +17.4 +14.9 85 +16 +16 1006.7 1005.1
00 21.03 Ю 5 15 км в посл. час ливневой дождь 8/5
[Cu med, cong Ac trans Ci sp]
+19.0 +15.7 81 +20 +21 1006.6 1005.0 +15.9 2
01 21.03 Ю 6 н/о н/о +19.1 +16.0 82 +20 +20 1006.7 1005.1
02 21.03 С 3 н/о н/о +18.2 +14.9 81 +19 +19 1006.4 1004.8
03 21.03 Ю 5 15 км 3/3
[Cu med, cong Ac trans]
+22.4 +17.1 72 +27 +33 душно 1005.2 1003.6
04 21.03 ЮВ 2 н/о н/о +23.4 +17.2 68 +29 +29 душно 1004.5 1003.0
05 21.03 СВ 2 н/о н/о +22.8 +16.8 69 +28 +28 душно 1003.7 1002.2
06 21.03 С 2 15 км 1/1
[Cu med, cong Ac trans Ci fib]
+25.5 +15.5 54 +29 +37 душно 1003.2 1001.7
07 21.03 С 3 н/о н/о +23.0 +14.8 60 +27 +27 душно 1003.5 1002.0
08 21.03 СВ 2 н/о н/о +22.2 +16.5 70 +26 +26 душно 1004.5 1002.9
09 21.03 В 3 20 км 9/1
[Cu hum Ac trans Ci sp]
+19.0 +16.1 83 +21 +21 комфорт 1005.9 1004.3
10 21.03 В 2 н/о н/о +18.1 +16.1 88 +19 +19 1006.3 1004.7
11 21.03 С 1 н/о н/о +17.8 +15.6 87 +19 +19 1006.8 1005.2
12 21.03 В 2 20 км 9/1
[Cu hum Ac trans Ci sp]
+17.2 +14.7 85 +17 +17 1007.2 1005.6 +26.7
13 21.03 Ю 2 н/о н/о +16.2 +13.7 85 +17 +17 1007.6 1006.0
15 21.03 С 2 н/о н/о +15.6 +12.0 79 +16 +16 1009.4 1007.8
16 21.03 С 4 н/о н/о +15.2 +10.0 71 +14 +14 1009.2 1007.6
17 21.03 СЗ 3 н/о н/о +14.8 +9.2 69 +14 +14 1009.2 1007.6
18 21.03 С 2 15 км {дождь} 9/1
[Cu hum Ac As]
+15.5 +7.0 57 +16 +16 1008.9 1007.3 0.0
20 21.03 С 5 н/о н/о +14.8 +7.6 62 +14 +14 1010.3 1008.7
21 21.03 СЗ 5 20 км 9/4
[Cu hum Ac As Ci sp]
+13.7 +7.7 67 +12 +12 1011.3 1009.7
22 21.03 С 4 н/о н/о +13.1 +5.8 61 +12 +12 1011.6 1010.0
23 21.03 СЗ 4 н/о н/о +13.3 +6.0 61 +12 +12 1012.6 1011.0
00 22.03 СЗ 5 30 км 9/1
[Cu hum Ac trans Ci sp]
+13.6 +6.2 61 +12 +14 1012.8 1011.2 +13.0 0.0
01 22.03 С 3 н/о н/о +13.5 +6.6 63 +12 +12 1013.1 1011.5
02 22.03 СЗ 5 н/о н/о +13.6 +6.2 61 +12 +12 1013.0 1011.4
03 22.03 СЗ 6 9000 м мгла 8/1
[Cu hum Ac trans Ci fib]
+15.5 +7.0 57 +14 +18 1012.8 1011.2
04 22.03 С 6 н/о н/о +15.4 +5.6 52 +14 +14 1012.6 1011.0
05 22.03 СЗ 5 н/о н/о +15.8 +5.7 51 +15 +15 1012.3 1010.7
06 22.03 С 5 15 км 9/3
[Cu hum Ac trans Ci fib]
+16.1 +6.0 51 +15 +17 1012.6 1011.0
07 22.03 С 5 н/о н/о +15.3 +5.2 51 +14 +14 1012.9 1011.3
08 22.03 С 5 н/о н/о +14.4 +4.4 51 +13 +13 1012.8 1011.2
09 22.03 С 5 10 км 9/1
[Cu Sc Ac trans Ci sp]
+13.5 +4.4 54 +12 +12 1013.4 1011.8
10 22.03 С 5 н/о н/о +12.8 +4.3 56 +11 +11 1014.3 1012.7
11 22.03 СЗ 4 н/о н/о +12.3 +4.3 58 +11 +11 1015.1 1013.5
12 22.03 СЗ 3 10 км 9/1
[Cu hum Ci sp]
+11.6 +4.6 62 +10 +10 1016.1 1014.5 +16.5
13 22.03 С 2 н/о н/о +11.0 +3.8 61 +10 +10 1016.5 1014.9
14 22.03 С 3 н/о н/о +10.4 +3.7 63 +9 +9 1016.8 1015.2
15 22.03 СЗ 4 н/о н/о +10.1 +2.9 61 +8 +8 1016.7 1015.1
16 22.03 С 3 н/о н/о +9.7 +2.6 61 +8 +8 1017.1 1015.5
17 22.03 С 3 н/о н/о +9.5 +1.9 59 +8 +8 1017.5 1015.8
18 22.03 С 3 10 км 9/1
[Cu hum Ac trans Ci fib]
+9.2 +1.9 60 +7 +7 1016.9 1015.2
19 22.03 С 2 н/о н/о +9.0 +2.1 62 +8 +8 1016.9 1015.2
20 22.03 С 2 н/о н/о +9.0 +1.9 61 +8 +8 1017.4 1015.7
21 22.03 Ю 3 10 км 9/1
[Cu hum Ac trans Ci sp]
+7.1 +3.2 76 +5 +5 1017.6 1015.9
22 22.03 Ю 2 н/о н/о +8.0 +2.5 68 +6 +6 1018.1 1016.4
23 22.03 Ю 2 н/о н/о +8.4 +3.3 70 +7 +7 1018.0 1016.3
00 23.03 ЮЗ 1 10 км 9/1
[Cu hum Ac As]
+9.6 +2.2 60 +9 +12 1018.3 1016.6 +7.1
01 23.03 С 2 н/о н/о +10.6 +2.2 56 +10 +10 1018.2 1016.6
02 23.03 СВ 1 н/о н/о +11.3 +3.1 57 +11 +11 1017.4 1015.8
03 23.03 З 2 10 км {дождь} 8/6
[Cu med, cong Ac trans]
+12.3 +2.7 52 +12 +16 1016.6 1015.0
04 23.03 С 5 н/о н/о +11.9 +5.3 64 +10 +10 1016.4 1014.8
05 23.03 СЗ 6 н/о н/о +10.9 +5.0 67 +8 +8 1015.7 1014.1
06 23.03 СЗ 5 20 км в посл. час ливневой дождь 3/3
[Cu med, cong]
+14.2 +1.2 41 +13 +16 1015.4 1013.8 0.0
07 23.03 С 5 н/о н/о +13.4 +2.3 47 +12 +12 1015.5 1013.9
08 23.03 С 6 н/о н/о +12.9 +0.3 42 +11 +11 1015.7 1014.1
09 23.03 С 4 30 км 1/1
[Cu med, cong Ac trans Ci fib]
+11.5 +0.6 47 +10 +10 1016.2 1014.6
10 23.03 СЗ 3 н/о н/о +10.4 +0.2 49 +9 +9 1017.1 1015.5
11 23.03 З 5 н/о н/о +10.2 -3.8 37 +8 +8 1017.9 1016.3
12 23.03 З 6 30 км 1/1
[Cu med, cong Ci fib]
+9.6 -3.7 39 +7 +7 1018.2 1016.5 +14.8 0.0
13 23.03 З 5 н/о н/о +9.6 -2.7 42 +7 +7 1018.6 1016.9
14 23.03 СЗ 2 н/о н/о +9.0 +1.0 57 +8 +8 1019.4 1017.7
15 23.03 ЮЗ 2 н/о н/о +8.8 +0.5 56 +7 +7 1019.8 1018.1
16 23.03 СЗ 4 н/о н/о +9.3 +0.5 54 +7 +7 1019.8 1018.1
17 23.03 СЗ 5 н/о н/о +8.8 +0.5 56 +6 +6 1020.3 1018.6
18 23.03 С 3 20 км {ливн. осадки} 9/9
[Cu Sc]
+8.5 +0.7 58 +6 +6 1020.4 1018.7 0.0
19 23.03 СЗ 3 н/о н/о +8.1 +0.4 58 +6 +6 1020.5 1018.8
20 23.03 СЗ 3 н/о н/о +8.0 0.0 57 +6 +6 1020.9 1019.2
21 23.03 СЗ 3 20 км 6/6
[Sc]
+7.7 -0.3 57 +5 +5 1021.3 1019.6
22 23.03 З 3 н/о н/о +7.9 -1.3 52 +6 +6 1021.6 1019.9
23 23.03 ЮЗ 3 н/о н/о +8.3 -1.2 51 +6 +6 1022.1 1020.4
00 24.03 СЗ 3 30 км 1/1
[Cu hum]
+10.4 -1.6 43 +9 +15 1022.6 1020.9 +7.1 0.0
02 24.03 С 3 н/о н/о +11.9 -0.9 41 +11 +11 1022.0 1020.4
03 24.03 С 2 40 км 1/1
[Cu hum]
+11.9 -1.6 39 +11 +26 опасность
простуды
1021.3 1019.7
04 24.03 СВ 3 н/о н/о +12.4 -2.6 35 +11 +11 1019.9 1018.3
05 24.03 СВ 5 н/о н/о +13.1 +1.1 44 +11 +11 1019.4 1017.8
06 24.03 В 4 40 км 1/1
[Cu hum]
+13.2 +0.9 43 +12 +17 1019.2 1017.6
07 24.03 СВ 4 н/о н/о +12.7 -0.2 41 +11 +11 1019.2 1017.6
08 24.03 В 4 н/о н/о +12.4 +0.5 44 +11 +11 1019.3 1017.7
09 24.03 В 3 40 км 3/1
[Cu hum Ci sp]
+11.5 +0.9 48 +10 +10 1019.9 1018.3
10 24.03 В 2 н/о н/о +10.9 +1.2 51 +10 +10 1020.1 1018.5
11 24.03 Ю 2 н/о н/о +10.1 +2.0 57 +9 +9 1021.1 1019.4
12 24.03 Ю 2 30 км 8/0
[Ci sp]
+9.1 +1.8 60 +8 +8 1021.4 1019.7 +14.2
13 24.03 Ю 2 н/о н/о +8.0 +2.3 67 +6 +6 1021.2 1019.5
14 24.03 Ю 2 н/о н/о +7.2 +2.3 71 +6 +6 1020.8 1019.1
15 24.03 Ю 3 н/о н/о +5.8 +2.1 77 +3 +3 1021.0 1019.3
16 24.03 Ю 3 н/о н/о +5.6 +1.9 77 +2 +2 1020.8 1019.1
17 24.03 Ю 3 н/о н/о +5.1 +1.2 76 +2 +2 1020.1 1018.4
18 24.03 Ю 2 30 км 9/0
[Ci sp]
+4.8 +1.3 78 +2 +2 1019.9 1018.2
19 24.03 Ю 3 н/о н/о +4.7 +0.7 75 +2 +2 1019.7 1018.0
20 24.03 Ю 3 н/о н/о +4.1 +0.6 78 +1 +1 1019.8 1018.1
21 24.03 Ю 3 25 км 9/0
[Ac trans Ci sp]
+3.6 +0.3 79 0 0 1019.8 1018.1
22 24.03 Ю 4 н/о н/о +4.1 -0.1 74 0 0 1020.2 1018.5
23 24.03 Ю 4 н/о н/о +6.2 -0.3 63 +3 +3 1020.6 1018.9
00 25.03 Ю 1 40 км 9/1
[Cu hum Ac trans Ci sp]
+8.8 +0.5 56 +10 +14 1020.6 1018.9 +3.5
01 25.03 В 1 н/о н/о +10.4 +1.8 55 +10 +10 1021.0 1019.3
02 25.03 СЗ 3 н/о н/о +10.2 +3.0 61 +9 +9 1020.7 1019.0
03 25.03 С 2 30 км 10/3
[Cu hum Ac As]
+10.3 +2.9 60 +10 +13 1020.1 1018.4
04 25.03 С 3 н/о н/о +10.7 +2.8 58 +9 +9 1019.6 1018.0
05 25.03 СЗ 2 н/о н/о +11.1 +3.2 58 +11 +11 1018.6 1017.0
06 25.03 С 3 25 км 10/8
[Cu Sc Ac As]
+11.2 +3.7 60 +10 +10 1018.3 1016.7
07 25.03 СЗ 3 н/о н/о +11.1 +3.9 61 +10 +10 1018.3 1016.7
08 25.03 СЗ 1 н/о н/о +11.2 +4.2 62 +11 +11 1018.8 1017.2
09 25.03 Ю 1 20 км в посл. час дождь 10/3
[Cu Sc Ac As]
+11.1 +4.1 62 +11 +11 1018.5 1016.9
10 25.03 Ю 1 н/о н/о +11.1 +4.3 63 +11 +11 1018.0 1016.4
11 25.03 Ю 2 н/о н/о +10.8 +4.5 65 +10 +10 1017.6 1016.0
12 25.03 Ю 3 15 км в посл. час дождь 10/5
[Cu Sc Ac As]
+10.6 +4.5 66 +9 +9 1017.5 1015.9 +11.5 0.0
13 25.03 Ю 1 н/о н/о +10.0 +5.4 73 +10 +10 1017.1 1015.5
14 25.03 Ю 2 н/о н/о +9.4 +5.6 77 +8 +8 1016.5 1014.8
15 25.03 Ю 2 н/о н/о +9.2 +5.6 78 +8 +8 1016.3 1014.6
16 25.03 Ю 2 н/о н/о +9.0 +6.1 82 +8 +8 1016.4 1014.7
17 25.03 ЮЗ 1 н/о н/о +9.1 +5.3 77 +9 +9 1016.6 1014.9
18 25.03 ЮЗ 1 15 км {дождь} 9/9
[Cu Sc]
+9.4 +4.4 71 +9 +9 1016.1 1014.5 0.0
19 25.03 Ю 2 н/о н/о +9.4 +4.2 70 +8 +8 1015.7 1014.1
20 25.03 Ю 3 н/о н/о +8.4 +5.2 80 +6 +6 1016.2 1014.5
21 25.03 ЮЗ 2 30 км {дождь} 8/6
[Cu Sc Ci sp]
+8.2 +5.3 82 +6 +6 1016.4 1014.7
22 25.03 Ю 2 н/о н/о +8.0 +5.3 83 +6 +6 1016.5 1014.8
23 25.03 Ю 2 н/о н/о +10.2 +4.8 69 +9 +9 1016.7 1015.1
00 26.03 В 1 30 км {дождь} 1/1
[Cu hum Ci sp]
+13.4 +5.3 58 +14 +22 1017.1 1015.5 +8.0 0.0
01 26.03 СВ 2 н/о н/о +15.3 +2.5 42 +15 +15 1017.2 1015.6
02 26.03 СЗ 3 н/о н/о +16.9 +1.0 34 +17 +17 1016.9 1015.3
03 26.03 СЗ 5 30 км 1/1
[Cu hum Ci fib]
+18.5 +1.1 31 +18 +27 1016.4 1014.8
04 26.03 СЗ 4 н/о н/о +20.1 +1.0 28 +20 +20 1016.1 1014.5
05 26.03 СЗ 5 н/о н/о +20.5 +0.4 26 +21 +21 комфорт 1015.7 1014.1

 

Местоположение метеостанции Оита (Япония): широта 33.23 долгота 131.61 высота над уровнем моря 13 м.

В архиве по умолчанию представлена погода в Оите за последнюю неделю. Архивные данные за месяц целиком и за предыдущие месяцы, начиная с января 2011 года, Вы можете получить, выбрав интересующий диапазон дат из раскрывающегося списка и нажав кнопку "Ввод!".


*Определитесь, кто Вы:
робот инопланетянин человек

Внимание! Время в таблицах - всемирное. Для получения местного времени необходимо прибавить поправку, которая равна 9 ч.

Смотрите также архив погоды в соседних городах и на ближайших метеорологических станциях:

Погода в Хите (Япония) (64 км)
Погода на Асо (Япония) (64 км)
Погода в Нобеоке (Япония) (72 км)
Погода в Увадзиме (Япония) (87 км)
Погода в Кумамото (Япония) (97 км)
Погода в Иидзуке (Япония) (97 км)
Погода в Симоносеки (Япония) (102 км)
Погода в Ямагути (Япония) (106 км)
Погода в Сукумо (Япония) (107 км)
Погода в Фукуоке (Япония) (121 км)

Пояснения к столбцам:

Ветер - указаны скорость ветра в м/с - средняя за 10 мин, порывы в срок и между сроками (в фигурных скобках) и направление, откуда дует ветер: С - северный, СВ - северо-восточный, В - восточный, ЮВ - юго-восточный, Ю - южный, ЮЗ - юго-западный, З - западный, СЗ - северо-западный.
Видимость - горизонтальная дальность видимости в метрах или километрах. При видимости от 1 до 10 км при отсутствии осадков обычно наблюдается дымка, при ухудшении видимости до 1 км и менее - туман. В сухую погоду видимость может ухудшаться дымом, пылью или мглою.
Явления - указаны атмосферные явления, наблюдавшиеся в срок или в последний час перед сроком; фигурными скобками обозначены явления, наблюдавшиеся между сроками (за 1-3 часа до срока); квадратными скобками обозначены град или гололедные отложения с указанием их диаметра в мм.
Облачность - указаны через наклонную черту общая и нижняя облачность в баллах и высота нижней границы облаков в метрах; квадратными скобками обозначены формы облаков: Ci - перистые, Cs - перисто-слоистые, Cc - перисто-кучевые, Ac - высококучевые, As - высокослоистые, Sc - слоисто-кучевые, Ns - слоисто-дождевые, Cu - кучевые, Cb - кучево-дождевые. Подробнее классификацию облаков см. в Атласе облаков (PDF).
T - Температура воздуха - температура, измеренная на высоте 2 м над землей.
Td - Температура точки росы - температура, при понижении до которой содержащийся в воздухе водяной пар достигнет насыщения.
f - Относительная влажность воздуха - влажноcть воздуха, измеренная на высоте 2 м над землей.
Te - Эффективная температура - температура, которую ощущает одетый по сезону человек в тени. Характеристика душности погоды. При расчете учитывается влияние влажности воздуха и скорости ветра на теплоощущения человека.
Tes - Эффективная температура на солнце - температура, которую ощущает человек, с поправкой на солнечный нагрев. Характеристика знойности погоды. Зависит от высоты солнца над горизонтом, облачности и скорости ветра. Ночью, в пасмурную погоду, а также при ветре 12 м/с и более поправка равна нулю.
P - Атмосферное давление - приведенное к уровню моря атмосферное давление.
Po - Атмосферное давление - измеренное на уровне метеостанции атмосферное давление.
Tmin - Минимальная температура - минимум температуры воздуха на высоте 2 м над землей.
Tmax - Максимальная температура - максимум температуры воздуха на высоте 2 м над землей.
R - Количество осадков - Количество выпавших осадков за период времени, мм. При наведении курсора мыши на число - период времени, за который выпало указанное количество осадков.
R24 - Количество осадков - Количество выпавших осадков за 24 часа, мм.
S - Снежный покров - Высота снежного покрова, см. При наведении курсора мыши на число - состояние снежного покрова и степень покрытия местности в баллах.